(140077) = 2001 SO119

Discovered at Socorro on 2001-09-16 by LINEAR.

Orbit

Orbit type: Main Belt

Note: WebGL enabled browser required.

epoch2023-09-13.0
epoch JD2460200.5
perihelion date2022-10-12.00079
perihelion JD2459864.50079
argument of perihelion (°)320.31878
ascending node (°)327.02994
inclination (°)9.45545
eccentricity0.0739935
perihelion distance (AU)2.8839504
Tisserand w.r.t. Jupiter3.2
ΔV w.r.t. Earth (km/sec)10.9
semimajor axis (AU)3.1143956
mean anomaly (°)60.25338
mean daily motion (°/day)0.17932600
aphelion distance (AU)3.345
period (years)5.5
P-vector [x]0.30290755
P-vector [y]-0.82734099
P-vector [z]-0.47302633
Q-vector [x]0.94881734
Q-vector [y]0.21524067
Q-vector [z]0.23112140
absolute magnitude15.18
phase slope0.15
uncertainty0
referenceMPEC 2024-A55
observations used664
oppositions18
arc length (days)11257
first opposition used1993
last opposition used2023
residual rms (arc-secs)0.75
perturbers coarse indicatorM-v
perturbers precise indicator003Ek
first observation date used1993-01-29.0
last observation date used2023-11-25.0
computer nameMPCLINUX
JD of orbit computation2456966.722169
perihelion JD uncertainty (days)5.0354E-04
argument of perihelion uncertainty (°)9.5925E-05
ascending node uncertainty (°)4.7734E-05
inclination uncertainty (°)1.0006E-05
eccentricity uncertainty 9.3308E-08
perihelion distance uncertainty (AU)2.7936E-07
Minimum Orbit Intersection Distances (in AU)
for orbit epoch: 2460200.5, reference: E2023-WC7
Mercury2.42684
Venus2.15836
Earth1.87482
Mars1.45453
Jupiter1.89015
Saturn5.76134
Uranus15.1947
Neptune26.7016

Observations

671 total observations over interval: 1993 01 29.28517 – 2023 11 25.295647
These data are available for download (format description).

Date (UT) J2000 RA J2000 Dec Magn Location Ref
1993 01 29.28517 09 25 32.80 +18 07 16.8 20.0 V 691 – Steward Observatory, Kitt Peak-Spacewatch MPS 97734
1993 01 29.29655 09 25 32.20 +18 07 17.8   691 – Steward Observatory, Kitt Peak-Spacewatch MPS 97734
1993 01 29.30855 09 25 31.60 +18 07 19.4   691 – Steward Observatory, Kitt Peak-Spacewatch MPS 97734
2001 09 16.29802 23 38 39.11 +05 07 01.8 19.5   704 – Lincoln Laboratory ETS, New Mexico MPS 36646
2001 09 16.31235 23 38 38.44 +05 06 59.9 19.3   704 – Lincoln Laboratory ETS, New Mexico MPS 36646
2001 09 16.32668 23 38 37.65 +05 06 56.9 19.6   704 – Lincoln Laboratory ETS, New Mexico MPS 36646
2001 09 16.34150 23 38 36.90 +05 06 55.0 19.6   704 – Lincoln Laboratory ETS, New Mexico MPS 36646
2001 09 16.35628 23 38 36.21 +05 06 52.9 19.5   704 – Lincoln Laboratory ETS, New Mexico MPS 36646
2001 09 18.18653 23 37 06.33 +05 02 03.2 18.5 R 699 – Lowell Observatory-LONEOS MPS 43921
2001 09 18.21005 23 37 05.21 +05 01 59.1   699 – Lowell Observatory-LONEOS MPS 43921
2001 09 18.23370 23 37 04.10 +05 01 54.9   699 – Lowell Observatory-LONEOS MPS 43921
2001 09 18.25711 23 37 02.88 +05 01 52.0   699 – Lowell Observatory-LONEOS MPS 43921
2001 09 20.25012 23 35 25.34 +04 56 19.6 19.4   704 – Lincoln Laboratory ETS, New Mexico MPS 36646
2001 09 20.26496 23 35 24.57 +04 56 18.3 19.5   704 – Lincoln Laboratory ETS, New Mexico MPS 36646
2001 09 20.28017 23 35 23.76 +04 56 15.5 19.7   704 – Lincoln Laboratory ETS, New Mexico MPS 36646
2001 09 20.31038 23 35 22.20 +04 56 10.8 20.3   704 – Lincoln Laboratory ETS, New Mexico MPS 36646
2001 09 22.25612 23 33 47.78 +04 50 37.3 19.2   704 – Lincoln Laboratory ETS, New Mexico MPS 43921
2001 09 22.27115 23 33 47.12 +04 50 35.3 19.1   704 – Lincoln Laboratory ETS, New Mexico MPS 43921
2001 09 22.28519 23 33 46.42 +04 50 31.5 19.3   704 – Lincoln Laboratory ETS, New Mexico MPS 43921
2001 09 22.29970 23 33 45.71 +04 50 30.1 19.1   704 – Lincoln Laboratory ETS, New Mexico MPS 43921
2001 09 23.24994 23 33 00.06 +04 47 42.9 18.9   704 – Lincoln Laboratory ETS, New Mexico MPS 43921
2001 09 23.26507 23 32 59.26 +04 47 39.3 19.1   704 – Lincoln Laboratory ETS, New Mexico MPS 43921
2001 09 23.29418 23 32 57.87 +04 47 33.9 19.4   704 – Lincoln Laboratory ETS, New Mexico MPS 43921
2001 09 26.24889 23 30 38.01 +04 38 45.4 19.3   704 – Lincoln Laboratory ETS, New Mexico MPS 49475
2001 09 26.26409 23 30 37.22 +04 38 41.7 19.8   704 – Lincoln Laboratory ETS, New Mexico MPS 49475
2001 09 26.27932 23 30 36.58 +04 38 40.4 20.0   704 – Lincoln Laboratory ETS, New Mexico MPS 49475
2001 09 26.29452 23 30 35.79 +04 38 37.4 19.7   704 – Lincoln Laboratory ETS, New Mexico MPS 49475
2001 09 26.30972 23 30 35.08 +04 38 34.3 19.9   704 – Lincoln Laboratory ETS, New Mexico MPS 49475
2001 09 28.15364 23 29 10.19 +04 32 57.9 19.5   644 – Palomar Mountain/NEAT MPS 36646
2001 09 28.17476 23 29 09.21 +04 32 53.8 19.5   644 – Palomar Mountain/NEAT MPS 36646
2001 09 28.18523 23 29 08.74 +04 32 52.1 18.9   704 – Lincoln Laboratory ETS, New Mexico MPS 36646
2001 09 28.19722 23 29 08.16 +04 32 49.6 19.5   644 – Palomar Mountain/NEAT MPS 36646
2001 09 28.21531 23 29 07.24 +04 32 46.4 19.2   704 – Lincoln Laboratory ETS, New Mexico MPS 36646
2001 09 28.23024 23 29 06.53 +04 32 43.4 19.2   704 – Lincoln Laboratory ETS, New Mexico MPS 36646
2002 12 05.24223 04 33 30.07 +35 03 56.7 20.1   704 – Lincoln Laboratory ETS, New Mexico MPS 97734
2002 12 05.25752 04 33 29.18 +35 03 54.1 20.1   704 – Lincoln Laboratory ETS, New Mexico MPS 97734
2002 12 05.28837 04 33 27.30 +35 03 49.3 20.4   704 – Lincoln Laboratory ETS, New Mexico MPS 97734
2002 12 10.21135 04 28 43.64 +34 49 48.1 20.1   644 – Palomar Mountain/NEAT MPS 97734
2002 12 10.27389 04 28 40.00 +34 49 36.7 20.0   644 – Palomar Mountain/NEAT MPS 97734
2002 12 10.33609 04 28 36.42 +34 49 25.1 20.1   644 – Palomar Mountain/NEAT MPS 97734
2004 01 18.32785 09 43 40.12 +16 33 33.6 20.0   644 – Palomar Mountain/NEAT MPS 96960
2004 01 18.35054 09 43 39.15 +16 33 36.1 19.8   644 – Palomar Mountain/NEAT MPS 96960
2004 01 18.37176 09 43 38.26 +16 33 38.0 19.9   644 – Palomar Mountain/NEAT MPS 96960
2004 01 22.29825 09 40 50.83 +16 40 25.0 19.7   704 – Lincoln Laboratory ETS, New Mexico MPS 96960
2004 01 22.31104 09 40 50.24 +16 40 27.7 20.2   704 – Lincoln Laboratory ETS, New Mexico MPS 96960
2004 01 22.32405 09 40 49.70 +16 40 27.7 20.2   704 – Lincoln Laboratory ETS, New Mexico MPS 96960
2004 01 22.34982 09 40 48.46 +16 40 30.4 20.2   704 – Lincoln Laboratory ETS, New Mexico MPS 96960
2004 02 11.28614 09 24 11.72 +17 17 45.3 19.4 R 699 – Lowell Observatory-LONEOS MPS 98736
2004 02 11.30638 09 24 10.73 +17 17 47.0   699 – Lowell Observatory-LONEOS MPS 98736
2004 02 11.32664 09 24 09.62 +17 17 48.0   699 – Lowell Observatory-LONEOS MPS 98736
2004 02 11.34689 09 24 08.62 +17 17 51.9   699 – Lowell Observatory-LONEOS MPS 98736
2004 02 12.19262 09 23 24.52 +17 19 16.5 20.0 V 691 – Steward Observatory, Kitt Peak-Spacewatch MPS 98736
2004 02 12.22044 09 23 23.02 +17 19 19.4 19.8 V 691 – Steward Observatory, Kitt Peak-Spacewatch MPS 98736
2004 02 12.25242 09 23 21.31 +17 19 22.8 19.8 V 691 – Steward Observatory, Kitt Peak-Spacewatch MPS 98736
2004 02 16.28441 09 19 52.21 +17 25 46.1 19.7   704 – Lincoln Laboratory ETS, New Mexico MPS 98736
2004 02 16.29605 09 19 51.52 +17 25 46.3 19.7   704 – Lincoln Laboratory ETS, New Mexico MPS 98736
2004 02 16.31942 09 19 50.29 +17 25 48.5 19.5   704 – Lincoln Laboratory ETS, New Mexico MPS 98736
2004 02 23.27069 09 14 04.93 +17 34 45.2 19.5   704 – Lincoln Laboratory ETS, New Mexico MPS 100017
2004 02 23.29610 09 14 03.61 +17 34 46.9 20.4   704 – Lincoln Laboratory ETS, New Mexico MPS 100017
2004 02 23.31006 09 14 02.89 +17 34 47.6 20.0   704 – Lincoln Laboratory ETS, New Mexico MPS 100017
2005 04 07.41563 14 08 19.21 -26 14 46.1 19.7   644 – Palomar Mountain/NEAT MPS 130664
2005 04 07.42630 14 08 18.71 -26 14 45.6 19.7   644 – Palomar Mountain/NEAT MPS 130664
2005 04 07.43693 14 08 18.20 -26 14 44.9 19.9   644 – Palomar Mountain/NEAT MPS 130665
2006 07 25.34417 21 10 36.84 -20 51 41.0 18.6 R 644 – Palomar Mountain/NEAT MPS 175084
2006 07 25.36474 21 10 35.79 -20 51 42.2 19.0 R 644 – Palomar Mountain/NEAT MPS 175084
2006 07 25.38499 21 10 34.72 -20 51 43.7 18.7 R 644 – Palomar Mountain/NEAT MPS 175084
2006 09 30.12020 20 33 51.37 -19 36 57.7 20.1 V G96 – Mt. Lemmon Survey MPS 182473
2006 09 30.12590 20 33 51.40 -19 36 56.5 20.1 V G96 – Mt. Lemmon Survey MPS 182473
2006 09 30.13139 20 33 51.44 -19 36 55.2 19.7 V G96 – Mt. Lemmon Survey MPS 182473
2006 09 30.13690 20 33 51.48 -19 36 54.5 20.1 V G96 – Mt. Lemmon Survey MPS 182473
2006 10 21.09955 20 41 32.64 -18 13 59.7 20.8 V G96 – Mt. Lemmon Survey MPS 183917
2006 10 21.10411 20 41 32.82 -18 13 58.7 20.4 V G96 – Mt. Lemmon Survey MPS 183917
2006 10 21.10856 20 41 32.96 -18 13 57.3 20.3 V G96 – Mt. Lemmon Survey MPS 183917
2006 10 21.11300 20 41 33.07 -18 13 55.8 20.4 V G96 – Mt. Lemmon Survey MPS 183917
2006 10 28.09752 20 46 03.03 -17 41 01.1 20.6 V G96 – Mt. Lemmon Survey MPS 185269
2006 10 28.10772 20 46 03.43 -17 40 58.0 20.8 V G96 – Mt. Lemmon Survey MPS 185269
2006 10 28.11779 20 46 03.82 -17 40 55.2 20.3 V G96 – Mt. Lemmon Survey MPS 185269
2006 10 28.12777 20 46 04.22 -17 40 51.9 20.5 V G96 – Mt. Lemmon Survey MPS 185269
2007 10 08.39207 02 16 20.96 +26 29 53.1 19.6 V 703 – Catalina Sky Survey MPS 220031
2007 10 08.40017 02 16 20.64 +26 29 52.7 19.7 V 703 – Catalina Sky Survey MPS 220031
2007 10 08.40822 02 16 20.31 +26 29 53.3 20.3 V 703 – Catalina Sky Survey MPS 220031
2007 10 08.41632 02 16 20.02 +26 29 51.7 19.4 V 703 – Catalina Sky Survey MPS 220031
2007 10 14.44819 02 11 38.07 +26 23 37.8 19.7 V 703 – Catalina Sky Survey MPS 222253
2007 10 14.45329 02 11 37.86 +26 23 36.6 20.1 V 703 – Catalina Sky Survey MPS 222253
2007 10 14.45854 02 11 37.68 +26 23 36.0 19.8 V 703 – Catalina Sky Survey MPS 222253
2007 10 14.46366 02 11 37.39 +26 23 35.4 19.8 V 703 – Catalina Sky Survey MPS 222253
2007 10 18.35364 02 08 23.62 +26 16 33.2 20.0 r 699 – Lowell Observatory-LONEOS MPS 222253
2007 10 18.37935 02 08 22.32 +26 16 30.8 20.3 r 699 – Lowell Observatory-LONEOS MPS 222253
